Tracking 18987 objects as of 25-Feb-2018
HD Live streaming from Space Station
objects crossing your sky now

NNSS 19 (TRANSIT 19)

Track NNSS 19 (TRANSIT 19) now!
10-day predictions
NNSS 19 (TRANSIT 19) is classified as:


NORAD ID: 4507
Int'l Code: 1970-067A
Perigee: 950.1 km
Apogee: 1,203.7 km
Inclination: 89.8 °
Period: 106.6 minutes
Semi major axis: 7447 km
RCS: 1.5637 m2 (large)
Launch date: August 27, 1970
Source: United States (US)
Launch site: AIR FORCE WESTERN TEST RANGE (AFWTR)
aabbcc
Your satellite tracking list
Your tracking list is empty




NASA's NSSDC Master Catalog

Two Line Element Set (TLE):
1  4507U 70067A   18055.92869383 +.00000069 +00000-0 +86719-4 0  9993
2  4507 089.8385 258.6309 0170214 258.9532 099.2435 13.50677432337745
Source of the keplerian elements: AFSPC